Weather History for McGuire AFB, NJ

Change the Weather History Date:

Wednesday, December 19, 2012

  Actual Average Record
Temperature  
Mean Temperature 42 °F -  
Max Temperature 49 °F 43 °F 57 °F (2002)
Min Temperature 36 °F 25 °F 19 °F (2011)
Degree Days  
Heating Degree Days 22    
Moisture  
Dew Point 28 °F    
Average Humidity 59    
Maximum Humidity 71    
Minimum Humidity 45    
Precipitation  
Precipitation 0.00 in - - ()
Sea Level Pressure  
Sea Level Pressure 29.89 in    
Wind  
Wind Speed 12 mph (WNW)    
Max Wind Speed 20 mph    
Max Gust Speed 25 mph    
Visibility 10 miles    
Events      
Averages and records for this station are not official NWS values.
T = Trace of Precipitation, MM = Missing Value Source: NWS Daily Summary

Daily Weather History Graph

Daily Weather History Graph

Search for Another Location

Airport:

Trip Planner

Search our weather history database for the weather conditions in past years. The results will help you decide how hot, cold, wet, or windy it might be!

Date:

Astronomy

Dec. 19, 2012 Rise Set
Actual Time 7:15 AM EST 4:35 PM EST
Civil Twilight 6:45 AM EST 5:06 PM EST
Nautical Twilight 6:11 AM EST 5:40 PM EST
Astronomical Twilight 5:38 AM EST 6:13 PM EST
Moon 11:23 AM EST (12/19) No Moon Set
Length of Visible Light 10h 20m
Length of Day
9h 19m
Waxing Crescent, 45% of the Moon is Illuminated
Dec 19
Waxing Crescent
Dec 20
First Quarter
Dec 28
Full
Jan 4
Last Quarter
Jan 11
New

Hourly Weather History & Observations

Time (EST) Temp. Windchill Dew Point Humidity Pressure Visibility Wind Dir Wind Speed Gust Speed Precip Events Conditions
12:55 AM 40.5 °F 33.6 °F 28.8 °F 63% 29.69 in 10.0 mi WNW 11.5 mph - N/A   Clear
1:55 AM 40.5 °F 31.8 °F 27.7 °F 60% 29.72 in 10.0 mi WNW 17.3 mph - N/A   Clear
2:55 AM 40.3 °F 33.9 °F 27.1 °F 59% 29.73 in 10.0 mi WNW 10.4 mph - N/A   Clear
3:55 AM 40.5 °F 33.6 °F 28.2 °F 62% 29.73 in 10.0 mi WNW 11.5 mph - N/A   Partly Cloudy
4:55 AM 39.7 °F 33.7 °F 27.5 °F 62% 29.74 in 10.0 mi WNW 9.2 mph - N/A   Partly Cloudy
5:55 AM 39.7 °F 33.7 °F 27.9 °F 63% 29.76 in 10.0 mi WNW 9.2 mph - N/A   Overcast
6:55 AM 38.7 °F 32.4 °F 28.4 °F 67% 29.79 in 10.0 mi WNW 9.2 mph - N/A   Partly Cloudy
7:55 AM 38.8 °F 32.1 °F 30.0 °F 71% 29.81 in 10.0 mi West 10.4 mph - N/A   Clear
8:55 AM 41.7 °F 35.2 °F 30.7 °F 65% 29.83 in 10.0 mi WNW 11.5 mph - N/A   Clear
9:55 AM 44.2 °F 37.0 °F 30.7 °F 59% 29.84 in 10.0 mi WNW 16.1 mph 20.7 mph N/A   Clear
10:55 AM 46.8 °F - 30.0 °F 52% 29.84 in 10.0 mi WNW 13.8 mph 24.2 mph N/A   Clear
11:55 AM 48.0 °F - 29.3 °F 48% 29.83 in 10.0 mi WNW 17.3 mph 23.0 mph N/A   Clear
12:55 PM 49.1 °F - 29.7 °F 47% 29.83 in 10.0 mi NW 19.6 mph 25.3 mph N/A   Clear
1:55 PM 49.3 °F - 28.6 °F 45% 29.83 in 10.0 mi NW 18.4 mph 24.2 mph N/A   Clear
2:55 PM 49.1 °F - 29.1 °F 46% 29.88 in 10.0 mi WNW 15.0 mph - N/A   Clear
3:55 PM 47.3 °F - 29.7 °F 50% 29.91 in 10.0 mi West 13.8 mph - N/A   Partly Cloudy
4:55 PM 44.8 °F 39.4 °F 30.0 °F 56% 29.96 in 10.0 mi West 10.4 mph - N/A   Overcast
5:55 PM 43.3 °F 39.9 °F 29.8 °F 59% 30.00 in 10.0 mi NW 5.8 mph - N/A   Scattered Clouds
6:55 PM 41.7 °F 35.2 °F 27.1 °F 56% 30.04 in 10.0 mi NW 11.5 mph - N/A   Clear
7:55 PM 40.8 °F 35.0 °F 26.6 °F 57% 30.07 in 10.0 mi WNW 9.2 mph - N/A   Clear
8:55 PM 38.8 °F 33.8 °F 26.4 °F 61% 30.09 in 10.0 mi WNW 6.9 mph - N/A   Clear
9:55 PM 37.2 °F 32.6 °F 25.9 °F 64% 30.11 in 10.0 mi West 5.8 mph - N/A   Clear
10:55 PM 36.9 °F 32.2 °F 25.9 °F 64% 30.13 in 10.0 mi West 5.8 mph - N/A   Clear
11:55 PM 36.0 °F 29.0 °F 26.4 °F 68% 30.13 in 10.0 mi WNW 9.2 mph - N/A   Clear